This demonstration page uses our WeatherBlox Daily Observations layout. Learn more.

Left ArrowRight Arrow

41.86663, -103.66717

Hourly Observations for October 11, 2015

Temp ( °F °C ) Dew Point ( °F °C ) Humidity (%) Winds ( mph kmh ) Pressure ( in mb ) Visibility ( mi km ) Precip ( " mm )
12:53 am 00:53 Clear 52 11.1 39 3.9 61 61 N N/A 29.76 1008 10 16 N/A
1:53 am 01:53 Clear 50 10 40 4.4 68 68 N 6 9 29.76 1008 10 16 N/A
2:53 am 02:53 Clear 57 13.9 37 2.8 47 47 NNW 6 9 29.73 1007 10 16 N/A
3:53 am 03:53 Clear 49 9.4 39 3.9 69 69 N N/A 29.73 1007 10 16 N/A
4:53 am 04:53 Clear 50 10 39 3.9 66 66 N N/A 29.72 1006 10 16 N/A
5:53 am 05:53 Clear 50 10 39 3.9 66 66 VRB 3 6 29.72 1007 10 16 N/A
6:53 am 06:53 Clear 49 9.4 39 3.9 69 69 NNE 7 11 29.75 1007 10 16 N/A
7:53 am 07:53 Sunny 55 12.8 43 6.1 64 64 NNE 9 15 29.74 1007 10 16 N/A
8:53 am 08:53 Sunny 66 18.9 43 6.1 43 43 NNE 7 11 29.73 1007 10 16 N/A
9:53 am 09:53 Sunny 79 26.1 41 5 26 26 W 20 31 29.71 1006 10 16 N/A
10:53 am 10:53 Sunny 83 28.3 40 4.4 22 22 W 18 30 29.69 1005 10 16 N/A
11:53 am 11:53 Sunny 86 30 39 3.9 19 19 W 24 39 29.65 1004 10 16 N/A
12:53 pm 12:53 Sunny 86 30 35 1.7 16 16 W 31 50 29.62 1003 10 16 N/A
1:53 pm 13:53 Sunny 86 30 34 1.1 15 15 W 35 56 29.62 1003 10 16 N/A
2:53 pm 14:53 Sunny 82 27.8 35 1.7 18 18 W 21 33 29.62 1003 10 16 N/A
3:53 pm 15:53 Sunny 80 26.7 34 1.1 19 19 W 12 19 29.65 1004 10 16 N/A
4:53 pm 16:53 Sunny 80 26.7 26 -3.3 14 14 NNW 18 30 29.68 1005 10 16 N/A
5:53 pm 17:53 Sunny 72 22.2 39 3.9 30 30 N 8 13 29.72 1007 10 16 N/A
6:53 pm 18:53 Clear 63 17.2 40 4.4 43 43 N N/A 29.80 1009 10 16 N/A
7:53 pm 19:53 Clear 58 14.4 40 4.4 51 51 N 5 7 29.83 1010 10 16 N/A
8:53 pm 20:53 Clear 50 10 41 5 71 71 NNW 7 11 29.86 1011 10 16 N/A
9:53 pm 21:53 Clear 50 10 36 2.2 59 59 NNW 6 9 29.88 1012 10 16 N/A
10:53 pm 22:53 Clear 47 8.3 32 undefined 56 56 WNW 7 11 29.92 1013 10 16 N/A
11:53 pm 23:53 Clear 45 7.2 31 -0.6 58 58 WNW 7 11 29.96 1014 10 16 N/A

Powered by AerisWeather